Tracking 34717 objects as of 14-Jul-2026
HD Live streaming from Space Station
objects crossing your sky now

SL-14 R/B

Track SL-14 R/B now!
10-day predictions
SL-14 R/B is classified as:


NORAD ID: 16882
Int'l Code: 1986-055B
Perigee: 606.3 km
Apogee: 630.5 km
Inclination: 82.5 °
Period: 96.9 minutes
Semi major axis: 6989 km
RCS: 4.759 m2 (large)
Launch date: July 28, 1986
Source: Commonwealth of Independent States (former USSR) (CIS)
Launch site: PLESETSK MISSILE AND SPACE COMPLEX (PKMTR)

Note: This is a ROCKET BODY
Your satellite tracking list
Your tracking list is empty




NASA's NSSDC Master Catalog

Two Line Element Set (TLE):
1 16882U 86055B   26195.55676956  .00000214  00000-0  21817-4 0  9991
2 16882  82.5202   7.3965 0017303 272.5606 152.5886 14.85740024138202
Source of the keplerian elements: AFSPC